| time (UTC) | temp C | wind direction | speed KPH | gust KPH | rain 1hr cm | rain 24hr cm | rain mn cm | humidity % | barometer mb |
| 20260506221443 | 16 | 137 | 12.9 | 17.7 | 0.00 | 0.00 | 0.00 | 69 | 1005.6 |
| 20260506221223 | 17 | 116 | 1.6 | 14.5 | 0.00 | 0.00 | 0.00 | 69 | 1005.7 |
| 20260506220444 | 17 | 138 | 9.7 | 14.5 | 0.00 | 0.00 | 0.00 | 69 | 1005.7 |
| 20260506215941 | 17 | 137 | 8.0 | 14.5 | 0.00 | 0.00 | 0.00 | 69 | 1005.8 |
| 20260506215443 | 17 | 135 | 6.4 | 8.0 | 0.00 | 0.00 | 0.00 | 68 | 1005.7 |
| 20260506214943 | 17 | 163 | 1.6 | 9.7 | 0.00 | 0.00 | 0.00 | 68 | 1005.7 |
| 20260506214443 | 17 | 114 | 1.6 | 12.9 | 0.00 | 0.00 | 0.00 | 68 | 1005.6 |
| 20260506214225 | 17 | 120 | 4.8 | 12.9 | 0.00 | 0.00 | 0.00 | 68 | 1005.4 |
| 20260506213442 | 17 | 122 | 11.3 | 14.5 | 0.00 | 0.00 | 0.00 | 67 | 1005.1 |
| 20260506212942 | 17 | 160 | 6.4 | 16.1 | 0.00 | 0.00 | 0.00 | 67 | 1005.1 |
| 20260506212444 | 17 | 139 | 12.9 | 16.1 | 0.00 | 0.00 | 0.00 | 66 | 1005.2 |
| 20260506211943 | 17 | 129 | 6.4 | 14.5 | 0.00 | 0.00 | 0.00 | 66 | 1005.2 |
| 20260506211443 | 17 | 142 | 9.7 | 17.7 | 0.00 | 0.00 | 0.00 | 65 | 1005.1 |
| 20260506210943 | 17 | 141 | 4.8 | 17.7 | 0.00 | 0.00 | 0.00 | 65 | 1005.3 |
| 20260506210443 | 17 | 137 | 8.0 | 11.3 | 0.00 | 0.00 | 0.00 | 65 | 1005.3 |
| 20260506205942 | 18 | 144 | 6.4 | 16.1 | 0.00 | 0.00 | 0.00 | 64 | 1005.3 |
| 20260506205442 | 18 | 120 | 11.3 | 17.7 | 0.00 | 0.00 | 0.00 | 64 | 1005.1 |
| 20260506204942 | 18 | 136 | 16.1 | 19.3 | 0.00 | 0.00 | 0.00 | 64 | 1005.1 |
| 20260506204444 | 18 | 129 | 17.7 | 20.9 | 0.00 | 0.00 | 0.00 | 63 | 1005.1 |
| 20260506203941 | 18 | 122 | 4.8 | 22.5 | 0.00 | 0.00 | 0.00 | 63 | 1005.1 |
| 20260506203443 | 18 | 101 | 3.2 | 22.5 | 0.00 | 0.00 | 0.00 | 63 | 1005.1 |
| 20260506203222 | 18 | 135 | 9.7 | 24.1 | 0.00 | 0.00 | 0.00 | 62 | 1005.0 |
| 20260506202443 | 18 | 127 | 8.0 | 24.1 | 0.00 | 0.00 | 0.00 | 62 | 1005.0 |
| 20260506202227 | 18 | 130 | 16.1 | 22.5 | 0.00 | 0.00 | 0.00 | 62 | 1005.0 |
| 20260506201443 | 18 | 136 | 9.7 | 22.5 | 0.00 | 0.00 | 0.00 | 61 | 1004.7 |
| 20260506201223 | 18 | 149 | 4.8 | 24.1 | 0.00 | 0.00 | 0.00 | 61 | 1004.9 |
| 20260506200444 | 18 | 131 | 8.0 | 24.1 | 0.00 | 0.00 | 0.00 | 60 | 1004.7 |
| 20260506200222 | 19 | 141 | 9.7 | 25.7 | 0.00 | 0.00 | 0.00 | 60 | 1004.6 |
| 20260506195442 | 19 | 143 | 8.0 | 25.7 | 0.00 | 0.00 | 0.00 | 60 | 1004.7 |
| 20260506194943 | 19 | 120 | 16.1 | 24.1 | 0.00 | 0.00 | 0.00 | 59 | 1004.7 |
| 20260506194451 | 19 | 129 | 17.7 | 27.4 | 0.00 | 0.00 | 0.00 | 59 | 1004.6 |
| 20260506193941 | 19 | 126 | 14.5 | 27.4 | 0.00 | 0.00 | 0.00 | 58 | 1004.5 |
| 20260506193725 | 19 | 136 | 19.3 | 25.7 | 0.00 | 0.00 | 0.00 | 58 | 1004.5 |
| 20260506193011 | 20 | 124 | 3.2 | 25.7 | 0.00 | 0.00 | 0.00 | 57 | 1004.6 |
| 20260506192959 | 19 | 138 | 19.3 | 25.7 | 0.00 | 0.00 | 0.00 | 58 | 1004.5 |
| 20260506191940 | 20 | 134 | 17.7 | 24.1 | 0.00 | 0.00 | 0.00 | 57 | 1004.6 |
| 20260506191440 | 20 | 144 | 6.4 | 25.7 | 0.00 | 0.00 | 0.00 | 56 | 1004.7 |
| 20260506190941 | 20 | 149 | 12.9 | 25.7 | 0.00 | 0.00 | 0.00 | 56 | 1004.6 |
| 20260506190510 | 20 | 119 | 8.0 | 30.6 | 0.00 | 0.00 | 0.00 | 55 | 1004.7 |
| 20260506190457 | 20 | 148 | 11.3 | 27.4 | 0.00 | 0.00 | 0.00 | 55 | 1004.7 |
| 20260506185437 | 20 | 128 | 6.4 | 30.6 | 0.00 | 0.00 | 0.00 | 55 | 1004.5 |
| 20260506184936 | 20 | 139 | 17.7 | 30.6 | 0.00 | 0.00 | 0.00 | 54 | 1004.5 |
| 20260506184439 | 20 | 140 | 14.5 | 32.2 | 0.00 | 0.00 | 0.00 | 54 | 1004.4 |
| 20260506184218 | 20 | 140 | 9.7 | 32.2 | 0.00 | 0.00 | 0.00 | 54 | 1004.3 |
| 20260506183720 | 20 | 161 | 8.0 | 27.4 | 0.00 | 0.00 | 0.00 | 53 | 1004.1 |
| 20260506182938 | 21 | 153 | 17.7 | 29.0 | 0.00 | 0.00 | 0.00 | 53 | 1004.3 |
| 20260506182720 | 21 | 118 | 9.7 | 29.0 | 0.00 | 0.00 | 0.00 | 53 | 1004.0 |
| 20260506181937 | 21 | 119 | 8.0 | 33.8 | 0.00 | 0.00 | 0.00 | 53 | 1003.9 |
| 20260506181438 | 21 | 136 | 22.5 | 33.8 | 0.00 | 0.00 | 0.00 | 52 | 1004.1 |
| 20260506180929 | 21 | 154 | 20.9 | 24.1 | 0.00 | 0.00 | 0.00 | 52 | 1004.2 |
| 20260506180429 | 21 | 115 | 6.4 | 24.1 | 0.00 | 0.00 | 0.00 | 52 | 1003.9 |
| 20260506175929 | 21 | 131 | 6.4 | 22.5 | 0.00 | 0.00 | 0.00 | 52 | 1003.7 |
| 20260506175429 | 21 | 141 | 17.7 | 25.7 | 0.00 | 0.00 | 0.00 | 52 | 1003.9 |
| 20260506174929 | 21 | 133 | 11.3 | 25.7 | 0.00 | 0.00 | 0.00 | 51 | 1004.1 |
| 20260506174428 | 21 | 154 | 9.7 | 19.3 | 0.00 | 0.00 | 0.00 | 51 | 1003.9 |
| 20260506173929 | 21 | 101 | 3.2 | 19.3 | 0.00 | 0.00 | 0.00 | 50 | 1003.9 |
| 20260506173429 | 21 | 126 | 3.2 | 20.9 | 0.00 | 0.00 | 0.00 | 50 | 1003.9 |
| 20260506172930 | 22 | 151 | 4.8 | 24.1 | 0.00 | 0.00 | 0.00 | 50 | 1003.8 |
| 20260506172454 | 22 | 140 | 9.7 | 30.6 | 0.00 | 0.00 | 0.00 | 49 | 1003.9 |
| 20260506172443 | 22 | 149 | 14.5 | 30.6 | 0.00 | 0.00 | 0.00 | 49 | 1003.9 |
| 20260506171429 | 22 | 131 | 14.5 | 27.4 | 0.00 | 0.00 | 0.00 | 49 | 1003.9 |
| 20260506170929 | 22 | 141 | 12.9 | 24.1 | 0.00 | 0.00 | 0.00 | 48 | 1003.9 |
| 20260506170429 | 22 | 144 | 9.7 | 24.1 | 0.00 | 0.00 | 0.00 | 48 | 1003.7 |
| 20260506170206 | 22 | 140 | 11.3 | 22.5 | 0.00 | 0.00 | 0.00 | 48 | 1003.8 |
| 20260506165429 | 22 | 137 | 9.7 | 22.5 | 0.00 | 0.00 | 0.00 | 47 | 1004.0 |
| 20260506164929 | 22 | 148 | 14.5 | 17.7 | 0.00 | 0.00 | 0.00 | 47 | 1004.1 |
| 20260506164429 | 22 | 130 | 8.0 | 20.9 | 0.00 | 0.00 | 0.00 | 47 | 1004.0 |
| 20260506164206 | 23 | 113 | 3.2 | 38.6 | 0.00 | 0.00 | 0.00 | 47 | 1003.9 |
| 20260506163426 | 23 | 143 | 11.3 | 38.6 | 0.00 | 0.00 | 0.00 | 46 | 1003.9 |
| 20260506163205 | 23 | 129 | 11.3 | 16.1 | 0.00 | 0.00 | 0.00 | 45 | 1004.0 |
| 20260506162704 | 23 | 181 | 4.8 | 24.1 | 0.00 | 0.00 | 0.00 | 44 | 1004.0 |
| 20260506162209 | 23 | 129 | 8.0 | 25.7 | 0.00 | 0.00 | 0.00 | 44 | 1004.2 |
| 20260506161429 | 23 | 147 | 17.7 | 27.4 | 0.00 | 0.00 | 0.00 | 44 | 1004.3 |
| 20260506160924 | 23 | 135 | 12.9 | 30.6 | 0.00 | 0.00 | 0.00 | 44 | 1004.5 |
| 20260506160426 | 23 | 142 | 20.9 | 30.6 | 0.00 | 0.00 | 0.00 | 43 | 1004.3 |
| 20260506155925 | 23 | 133 | 24.1 | 30.6 | 0.00 | 0.00 | 0.00 | 43 | 1004.5 |
| 20260506155454 | 23 | 147 | 19.3 | 33.8 | 0.00 | 0.00 | 0.00 | 44 | 1004.5 |
| 20260506155443 | 23 | 129 | 19.3 | 30.6 | 0.00 | 0.00 | 0.00 | 44 | 1004.5 |
| 20260506154426 | 23 | 139 | 3.2 | 33.8 | 0.00 | 0.00 | 0.00 | 44 | 1004.6 |
| 20260506153925 | 23 | 144 | 12.9 | 30.6 | 0.00 | 0.00 | 0.00 | 44 | 1004.4 |
| 20260506153705 | 23 | 137 | 24.1 | 32.2 | 0.00 | 0.00 | 0.00 | 44 | 1005.0 |
| 20260506152926 | 23 | 121 | 4.8 | 32.2 | 0.00 | 0.00 | 0.00 | 44 | 1004.9 |
| 20260506152425 | 23 | 132 | 9.7 | 32.2 | 0.00 | 0.00 | 0.00 | 44 | 1005.1 |
| 20260506151924 | 23 | 178 | 8.0 | 32.2 | 0.00 | 0.00 | 0.00 | 44 | 1005.3 |
| 20260506151426 | 23 | 142 | 8.0 | 30.6 | 0.00 | 0.00 | 0.00 | 44 | 1005.2 |
| 20260506150925 | 23 | 146 | 12.9 | 25.7 | 0.00 | 0.00 | 0.00 | 45 | 1005.3 |
| 20260506150425 | 23 | 134 | 6.4 | 35.4 | 0.00 | 0.00 | 0.00 | 45 | 1005.4 |
| 20260506145925 | 23 | 130 | 24.1 | 35.4 | 0.00 | 0.00 | 0.00 | 46 | 1005.4 |
| 20260506145426 | 23 | 151 | 12.9 | 41.8 | 0.00 | 0.00 | 0.00 | 45 | 1005.2 |
| 20260506144926 | 23 | 129 | 12.9 | 41.8 | 0.00 | 0.00 | 0.00 | 46 | 1005.4 |
| 20260506144426 | 23 | 141 | 20.9 | 40.2 | 0.00 | 0.00 | 0.00 | 46 | 1005.5 |
| 20260506143924 | 23 | 151 | 16.1 | 27.4 | 0.00 | 0.00 | 0.00 | 45 | 1005.4 |
| 20260506143427 | 23 | 149 | 8.0 | 27.4 | 0.00 | 0.00 | 0.00 | 47 | 1005.5 |
| 20260506142914 | 23 | 133 | 8.0 | 25.7 | 0.00 | 0.00 | 0.00 | 47 | 1005.6 |
| 20260506142413 | 22 | 128 | 8.0 | 24.1 | 0.00 | 0.00 | 0.00 | 47 | 1005.8 |
| 20260506141915 | 23 | 132 | 8.0 | 19.3 | 0.00 | 0.00 | 0.00 | 47 | 1005.7 |
| 20260506141412 | 23 | 126 | 4.8 | 20.9 | 0.00 | 0.00 | 0.00 | 47 | 1005.8 |
| 20260506140914 | 23 | 165 | 6.4 | 27.4 | 0.00 | 0.00 | 0.00 | 47 | 1005.4 |
| 20260506140412 | 22 | 147 | 9.7 | 30.6 | 0.00 | 0.00 | 0.00 | 47 | 1005.8 |
| 20260506135914 | 22 | 142 | 6.4 | 33.8 | 0.00 | 0.00 | 0.00 | 49 | 1006.0 |
| 20260506135415 | 22 | 150 | 8.0 | 33.8 | 0.00 | 0.00 | 0.00 | 49 | 1005.9 |
| 20260506134914 | 23 | 136 | 20.9 | 30.6 | 0.00 | 0.00 | 0.00 | 48 | 1005.8 |
| 20260506134413 | 23 | 120 | 3.2 | 30.6 | 0.00 | 0.00 | 0.00 | 49 | 1006.1 |
| 20260506133917 | 23 | 169 | 6.4 | 22.5 | 0.00 | 0.00 | 0.00 | 47 | 1005.8 |
| 20260506133413 | 22 | 131 | 8.0 | 30.6 | 0.00 | 0.00 | 0.00 | 48 | 1005.9 |
| 20260506132914 | 22 | 138 | 14.5 | 30.6 | 0.00 | 0.00 | 0.00 | 49 | 1006.1 |
| 20260506132654 | 22 | 133 | 11.3 | 29.0 | 0.00 | 0.00 | 0.00 | 48 | 1006.2 |
| 20260506132157 | 22 | 137 | 12.9 | 32.2 | 0.00 | 0.00 | 0.00 | 48 | 1006.2 |
| 20260506131654 | 22 | 143 | 20.9 | 32.2 | 0.00 | 0.00 | 0.00 | 49 | 1006.3 |
| 20260506130912 | 23 | 122 | 19.3 | 33.8 | 0.00 | 0.00 | 0.00 | 48 | 1006.5 |
| 20260506130408 | 22 | 151 | 14.5 | 33.8 | 0.00 | 0.00 | 0.00 | 47 | 1006.3 |
| 20260506125909 | 23 | 110 | 4.8 | 25.7 | 0.00 | 0.00 | 0.00 | 46 | 1006.4 |
| 20260506125409 | 23 | 128 | 14.5 | 25.7 | 0.00 | 0.00 | 0.00 | 45 | 1006.4 |
| 20260506124908 | 23 | 85 | 3.2 | 30.6 | 0.00 | 0.00 | 0.00 | 44 | 1006.4 |
| 20260506124408 | 23 | 179 | 3.2 | 32.2 | 0.00 | 0.00 | 0.00 | 44 | 1006.6 |
| 20260506124146 | 23 | 133 | 17.7 | 32.2 | 0.00 | 0.00 | 0.00 | 43 | 1006.4 |
| 20260506123410 | 22 | 134 | 11.3 | 29.0 | 0.00 | 0.00 | 0.00 | 44 | 1006.6 |
| 20260506122907 | 23 | 135 | 16.1 | 30.6 | 0.00 | 0.00 | 0.00 | 44 | 1006.7 |
| 20260506122409 | 23 | 121 | 17.7 | 30.6 | 0.00 | 0.00 | 0.00 | 44 | 1006.5 |
| 20260506122152 | 23 | 137 | 6.4 | 14.5 | 0.00 | 0.00 | 0.00 | 43 | 1006.9 |
| 20260506121409 | 24 | 179 | 4.8 | 14.5 | 0.00 | 0.00 | 0.00 | 43 | 1006.8 |
| 20260506121157 | 24 | 228 | 4.8 | 17.7 | 0.00 | 0.00 | 0.00 | 42 | 1006.7 |
| 20260506120406 | 23 | 103 | 0.0 | 17.7 | 0.00 | 0.00 | 0.00 | 44 | 1006.9 |
| 20260506115905 | 23 | 88 | 4.8 | 27.4 | 0.00 | 0.00 | 0.00 | 45 | 1007.0 |
| 20260506115408 | 23 | 104 | 1.6 | 27.4 | 0.00 | 0.00 | 0.00 | 45 | 1006.9 |
| 20260506114905 | 23 | 127 | 1.6 | 29.0 | 0.00 | 0.00 | 0.00 | 44 | 1006.8 |
| 20260506114645 | 22 | 174 | 3.2 | 29.0 | 0.00 | 0.00 | 0.00 | 45 | 1007.0 |
| 20260506113907 | 22 | 132 | 27.4 | 27.4 | 0.00 | 0.00 | 0.00 | 45 | 1007.0 |
| 20260506113407 | 23 | 136 | 4.8 | 19.3 | 0.00 | 0.00 | 0.00 | 45 | 1006.9 |
| 20260506112906 | 23 | 68 | 3.2 | 19.3 | 0.00 | 0.00 | 0.00 | 45 | 1007.2 |
| 20260506112406 | 23 | 159 | 8.0 | 19.3 | 0.00 | 0.00 | 0.00 | 45 | 1007.1 |
| 20260506111905 | 24 | 103 | 0.0 | 12.9 | 0.00 | 0.00 | 0.00 | 44 | 1007.1 |
| 20260506111407 | 23 | 295 | 0.0 | 17.7 | 0.00 | 0.00 | 0.00 | 45 | 1007.3 |
| 20260506110905 | 24 | 114 | 3.2 | 17.7 | 0.00 | 0.00 | 0.00 | 44 | 1007.3 |
| 20260506110451 | 23 | 179 | 3.2 | 12.9 | 0.00 | 0.00 | 0.00 | 46 | 1007.4 |
| 20260506110447 | 23 | 0 | 6.4 | 14.5 | 0.00 | 0.00 | 0.00 | 46 | 1007.5 |
| 20260506110436 | 23 | 328 | 8.0 | 12.9 | 0.00 | 0.00 | 0.00 | 45 | 1007.2 |
| 20260506104907 | 23 | 117 | 11.3 | 14.5 | 0.00 | 0.00 | 0.00 | 46 | 1007.5 |
| 20260506104406 | 24 | 103 | 1.6 | 12.9 | 0.00 | 0.00 | 0.00 | 45 | 1007.6 |
| 20260506103908 | 23 | 91 | 0.0 | 12.9 | 0.00 | 0.00 | 0.00 | 46 | 1007.6 |
| 20260506103643 | 23 | 122 | 3.2 | 9.7 | 0.00 | 0.00 | 0.00 | 45 | 1007.7 |
| 20260506102907 | 23 | 186 | 1.6 | 9.7 | 0.00 | 0.00 | 0.00 | 44 | 1007.7 |
| 20260506102405 | 23 | 295 | 3.2 | 12.9 | 0.00 | 0.00 | 0.00 | 46 | 1007.8 |
| 20260506101907 | 23 | 120 | 4.8 | 12.9 | 0.00 | 0.00 | 0.00 | 46 | 1007.7 |
| 20260506101428 | 22 | 19 | 1.6 | 19.3 | 0.00 | 0.00 | 0.00 | 46 | 1007.8 |
| 20260506101421 | 22 | 129 | 0.0 | 19.3 | 0.00 | 0.00 | 0.00 | 46 | 1007.7 |
| 20260506100415 | 23 | 134 | 4.8 | 9.7 | 0.00 | 0.00 | 0.00 | 45 | 1007.6 |
| 20260506095906 | 23 | 316 | 3.2 | 14.5 | 0.00 | 0.00 | 0.00 | 44 | 1007.9 |
| 20260506095644 | 23 | 80 | 1.6 | 14.5 | 0.00 | 0.00 | 0.00 | 47 | 1007.8 |
| 20260506094905 | 24 | 128 | 8.0 | 12.9 | 0.00 | 0.00 | 0.00 | 44 | 1007.9 |
| 20260506094407 | 23 | 151 | 8.0 | 16.1 | 0.00 | 0.00 | 0.00 | 46 | 1007.8 |
| 20260506093906 | 23 | 148 | 9.7 | 16.1 | 0.00 | 0.00 | 0.00 | 46 | 1008.0 |
| 20260506093407 | 23 | 157 | 3.2 | 14.5 | 0.00 | 0.00 | 0.00 | 46 | 1007.8 |
| 20260506092905 | 23 | 121 | 3.2 | 9.7 | 0.00 | 0.00 | 0.00 | 46 | 1008.1 |
| 20260506092407 | 23 | 139 | 9.7 | 9.7 | 0.00 | 0.00 | 0.00 | 46 | 1007.8 |
| 20260506092148 | 23 | 167 | 6.4 | 9.7 | 0.00 | 0.00 | 0.00 | 48 | 1007.9 |
| 20260506091407 | 23 | 259 | 3.2 | 11.3 | 0.00 | 0.00 | 0.00 | 48 | 1008.2 |
| 20260506090905 | 23 | 126 | 3.2 | 11.3 | 0.00 | 0.00 | 0.00 | 48 | 1008.0 |
| 20260506090407 | 23 | 169 | 3.2 | 9.7 | 0.00 | 0.00 | 0.00 | 48 | 1008.0 |
| 20260506085907 | 22 | 314 | 4.8 | 14.5 | 0.00 | 0.00 | 0.00 | 51 | 1008.2 |
| 20260506085433 | 22 | 148 | 4.8 | 8.0 | 0.00 | 0.00 | 0.00 | 51 | 1008.1 |
| 20260506085421 | 22 | 224 | 0.0 | 14.5 | 0.00 | 0.00 | 0.00 | 51 | 1007.9 |
| 20260506084407 | 21 | 92 | 6.4 | 8.0 | 0.00 | 0.00 | 0.00 | 54 | 1008.0 |
| 20260506083906 | 22 | 179 | 3.2 | 9.7 | 0.00 | 0.00 | 0.00 | 52 | 1008.2 |
| 20260506083645 | 22 | 145 | 9.7 | 9.7 | 0.00 | 0.00 | 0.00 | 53 | 1008.0 |
| 20260506082907 | 22 | 92 | 1.6 | 9.7 | 0.00 | 0.00 | 0.00 | 53 | 1008.3 |
| 20260506082656 | 22 | 322 | 3.2 | 6.4 | 0.00 | 0.00 | 0.00 | 54 | 1008.3 |
| 20260506081905 | 22 | 34 | 3.2 | 6.4 | 0.00 | 0.00 | 0.00 | 55 | 1008.2 |
| 20260506081407 | 22 | 175 | 0.0 | 6.4 | 0.00 | 0.00 | 0.00 | 54 | 1008.3 |
| 20260506081145 | 22 | 206 | 3.2 | 11.3 | 0.00 | 0.00 | 0.00 | 54 | 1008.3 |
| 20260506080408 | 22 | 44 | 3.2 | 11.3 | 0.00 | 0.00 | 0.00 | 53 | 1008.2 |
| 20260506073406 | 21 | 1 | 3.2 | 6.4 | 0.00 | 0.00 | 0.00 | 54 | 1008.3 |
| 20260506072907 | 21 | 13 | 1.6 | 6.4 | 0.00 | 0.00 | 0.00 | 55 | 1008.4 |
| 20260506072646 | 21 | 339 | 3.2 | 8.0 | 0.00 | 0.00 | 0.00 | 53 | 1008.1 |
| 20260506071908 | 21 | 334 | 0.0 | 8.0 | 0.00 | 0.00 | 0.00 | 56 | 1008.3 |
| 20260506071414 | 22 | 321 | 6.4 | 6.4 | 0.00 | 0.00 | 0.00 | 54 | 1008.1 |
| 20260506070906 | 21 | 105 | 0.0 | 4.8 | 0.00 | 0.00 | 0.00 | 54 | 1008.4 |
| 20260506070405 | 21 | 331 | 0.0 | 6.4 | 0.00 | 0.00 | 0.00 | 56 | 1008.0 |
| 20260506062407 | 18 | 116 | 3.2 | 8.0 | 0.00 | 0.00 | 0.00 | 65 | 1008.2 |
| 20260506061905 | 17 | 132 | 4.8 | 8.0 | 0.00 | 0.00 | 0.00 | 67 | 1008.1 |
| 20260506061408 | 17 | 37 | 0.0 | 8.0 | 0.00 | 0.00 | 0.00 | 67 | 1008.0 |
| 20260506060907 | 17 | 88 | 0.0 | 9.7 | 0.00 | 0.00 | 0.00 | 69 | 1008.3 |
| 20260506060408 | 17 | 154 | 3.2 | 9.7 | 0.00 | 0.00 | 0.00 | 67 | 1008.2 |
| 20260506050903 | 13 | 48 | 4.8 | 6.4 | 0.00 | 0.00 | 0.00 | 78 | 1008.2 |
| 20260506050406 | 13 | 137 | 3.2 | 6.4 | 0.00 | 0.00 | 0.00 | 77 | 1008.2 |
| 20260506044405 | 12 | 89 | 0.0 | 6.4 | 0.00 | 0.00 | 0.00 | 82 | 1007.9 |
| 20260506043933 | 12 | 152 | 3.2 | 6.4 | 0.00 | 0.00 | 0.00 | 81 | 1007.8 |
| 20260506043923 | 12 | 201 | 4.8 | 6.4 | 0.00 | 0.00 | 0.00 | 82 | 1007.7 |
| 20260506042904 | 12 | 164 | 3.2 | 6.4 | 0.00 | 0.00 | 0.00 | 84 | 1008.1 |
| 20260506042404 | 11 | 187 | 3.2 | 8.0 | 0.00 | 0.00 | 0.00 | 85 | 1007.9 |
| 20260506041905 | 11 | 178 | 3.2 | 8.0 | 0.00 | 0.00 | 0.00 | 86 | 1007.8 |
| 20260506041405 | 10 | 164 | 3.2 | 4.8 | 0.00 | 0.00 | 0.00 | 88 | 1007.8 |
| 20260506041141 | 10 | 179 | 3.2 | 6.4 | 0.00 | 0.00 | 0.00 | 89 | 1007.7 |
| 20260506040404 | 10 | 104 | 6.4 | 6.4 | 0.00 | 0.00 | 0.00 | 90 | 1007.6 |
| 20260506040144 | 10 | 269 | 0.0 | 3.2 | 0.00 | 0.00 | 0.00 | 90 | 1007.5 |
| 20260506035406 | 10 | 50 | 0.0 | 6.4 | 0.00 | 0.00 | 0.00 | 91 | 1007.5 |
| 20260506035144 | 10 | 269 | 0.0 | 6.4 | 0.00 | 0.00 | 0.00 | 90 | 1007.5 |
| 20260506034406 | 10 | 131 | 3.2 | 6.4 | 0.00 | 0.00 | 0.00 | 90 | 1007.3 |
| 20260506033905 | 10 | 166 | 3.2 | 4.8 | 0.00 | 0.00 | 0.00 | 90 | 1007.6 |
| 20260506033405 | 10 | 72 | 3.2 | 4.8 | 0.00 | 0.00 | 0.00 | 90 | 1007.6 |
| 20260506033207 | 10 | 248 | 0.0 | 4.8 | 0.00 | 0.00 | 0.00 | 90 | 1007.3 |
| 20260506033158 | 10 | 229 | 4.8 | 8.0 | 0.00 | 0.00 | 0.00 | 90 | 1007.5 |
| 20260506031904 | 10 | 42 | 3.2 | 8.0 | 0.00 | 0.00 | 0.00 | 88 | 1007.6 |
| 20260506031405 | 10 | 39 | 3.2 | 6.4 | 0.00 | 0.00 | 0.00 | 88 | 1007.4 |
| 20260506030903 | 10 | 220 | 3.2 | 6.4 | 0.00 | 0.00 | 0.00 | 88 | 1007.0 |
| 20260506030639 | 10 | 125 | 3.2 | 6.4 | 0.00 | 0.00 | 0.00 | 87 | 1007.3 |
| 20260506030141 | 10 | 135 | 3.2 | 6.4 | 0.00 | 0.00 | 0.00 | 87 | 1007.1 |
| 20260506025640 | 10 | 79 | 1.6 | 6.4 | 0.00 | 0.00 | 0.00 | 87 | 1007.1 |
| 20260506024903 | 11 | 155 | 3.2 | 6.4 | 0.00 | 0.00 | 0.00 | 86 | 1007.1 |
| 20260506024405 | 11 | 160 | 3.2 | 4.8 | 0.00 | 0.00 | 0.00 | 86 | 1007.1 |
| 20260506023904 | 11 | 133 | 1.6 | 6.4 | 0.00 | 0.00 | 0.00 | 86 | 1007.0 |
| 20260506023405 | 11 | 185 | 3.2 | 6.4 | 0.00 | 0.00 | 0.00 | 85 | 1007.0 |
| 20260506022904 | 11 | 156 | 1.6 | 3.2 | 0.00 | 0.00 | 0.00 | 84 | 1007.1 |
| 20260506022406 | 11 | 179 | 1.6 | 3.2 | 0.00 | 0.00 | 0.00 | 84 | 1007.3 |
| 20260506022145 | 11 | 141 | 0.0 | 3.2 | 0.00 | 0.00 | 0.00 | 83 | 1007.4 |
| 20260506021405 | 11 | 141 | 0.0 | 3.2 | 0.00 | 0.00 | 0.00 | 82 | 1007.0 |
| 20260506020903 | 12 | 143 | 1.6 | 3.2 | 0.00 | 0.00 | 0.00 | 82 | 1007.1 |
| 20260506020404 | 12 | 129 | 0.0 | 3.2 | 0.00 | 0.00 | 0.00 | 81 | 1007.0 |
| 20260506015904 | 12 | 145 | 0.0 | 3.2 | 0.00 | 0.00 | 0.00 | 80 | 1006.8 |
| 20260506015406 | 12 | 124 | 0.0 | 3.2 | 0.00 | 0.00 | 0.00 | 80 | 1006.8 |
| 20260506015146 | 12 | 149 | 3.2 | 3.2 | 0.00 | 0.00 | 0.00 | 79 | 1006.8 |
| 20260506014640 | 12 | 158 | 0.0 | 3.2 | 0.00 | 0.00 | 0.00 | 78 | 1006.9 |
| 20260506013906 | 12 | 168 | 0.0 | 4.8 | 0.00 | 0.00 | 0.00 | 77 | 1006.8 |
| 20260506013405 | 13 | 138 | 3.2 | 4.8 | 0.00 | 0.00 | 0.00 | 77 | 1006.3 |
| 20260506012904 | 13 | 140 | 3.2 | 4.8 | 0.00 | 0.00 | 0.00 | 76 | 1006.4 |
| 20260506012405 | 13 | 130 | 3.2 | 4.8 | 0.00 | 0.00 | 0.00 | 75 | 1006.5 |
| 20260506011904 | 13 | 154 | 1.6 | 3.2 | 0.00 | 0.00 | 0.00 | 74 | 1006.4 |
| 20260506011405 | 13 | 172 | 1.6 | 3.2 | 0.00 | 0.00 | 0.00 | 74 | 1006.4 |
| 20260506010903 | 14 | 129 | 0.0 | 3.2 | 0.00 | 0.00 | 0.00 | 73 | 1006.4 |
| 20260506010404 | 14 | 154 | 0.0 | 4.8 | 0.00 | 0.00 | 0.00 | 72 | 1006.4 |
| 20260506005905 | 14 | 132 | 0.0 | 4.8 | 0.00 | 0.00 | 0.00 | 71 | 1006.4 |
| 20260506005429 | 15 | 141 | 1.6 | 4.8 | 0.00 | 0.00 | 0.00 | 69 | 1006.4 |
| 20260506005420 | 14 | 130 | 4.8 | 4.8 | 0.00 | 0.00 | 0.00 | 70 | 1006.5 |
| 20260506004405 | 15 | 149 | 3.2 | 6.4 | 0.00 | 0.00 | 0.00 | 69 | 1006.3 |
| 20260506003903 | 15 | 126 | 3.2 | 8.0 | 0.00 | 0.00 | 0.00 | 68 | 1006.1 |
| 20260506003407 | 15 | 137 | 4.8 | 8.0 | 0.00 | 0.00 | 0.00 | 68 | 1006.1 |
| 20260506002903 | 15 | 146 | 4.8 | 6.4 | 0.00 | 0.00 | 0.00 | 67 | 1006.2 |
| 20260506002405 | 15 | 12 | 1.6 | 6.4 | 0.00 | 0.00 | 0.00 | 67 | 1006.0 |
| 20260506001905 | 15 | 125 | 3.2 | 6.4 | 0.00 | 0.00 | 0.00 | 67 | 1006.0 |
| 20260506001406 | 15 | 132 | 3.2 | 8.0 | 0.00 | 0.00 | 0.00 | 66 | 1005.9 |
| 20260506000903 | 15 | 152 | 3.2 | 8.0 | 0.00 | 0.00 | 0.00 | 66 | 1006.1 |
| 20260506000638 | 15 | 143 | 6.4 | 6.4 | 0.00 | 0.00 | 0.00 | 66 | 1006.2 |
| 20260506000211 | 15 | 141 | 3.2 | 3.2 | 0.00 | 0.00 | 0.00 | 66 | 1006.3 |
| 20260506000205 | 15 | 142 | 3.2 | 3.2 | 0.00 | 0.00 | 0.00 | 66 | 1006.2 |
| 20260505234905 | 15 | 149 | 3.2 | 6.4 | 0.00 | 0.00 | 0.00 | 65 | 1006.1 |
| 20260505234405 | 16 | 146 | 3.2 | 6.4 | 0.00 | 0.00 | 0.00 | 65 | 1006.0 |
| 20260505233904 | 16 | 151 | 3.2 | 9.7 | 0.00 | 0.00 | 0.00 | 64 | 1005.9 |
| 20260505233405 | 16 | 140 | 3.2 | 11.3 | 0.00 | 0.00 | 0.00 | 64 | 1005.9 |
| 20260505232904 | 16 | 127 | 4.8 | 11.3 | 0.00 | 0.00 | 0.00 | 64 | 1006.0 |
| 20260505232405 | 16 | 131 | 1.6 | 9.7 | 0.00 | 0.00 | 0.00 | 64 | 1005.8 |
| 20260505231903 | 16 | 139 | 6.4 | 8.0 | 0.00 | 0.00 | 0.00 | 64 | 1005.8 |
| 20260505231641 | 16 | 136 | 0.0 | 8.0 | 0.00 | 0.00 | 0.00 | 64 | 1005.7 |
| 20260505230904 | 16 | 138 | 3.2 | 9.7 | 0.00 | 0.00 | 0.00 | 63 | 1005.8 |
| 20260505230405 | 16 | 156 | 3.2 | 9.7 | 0.00 | 0.00 | 0.00 | 63 | 1005.9 |
| 20260505225906 | 16 | 121 | 6.4 | 12.9 | 0.00 | 0.00 | 0.00 | 63 | 1006.0 |
| 20260505225405 | 16 | 152 | 3.2 | 12.9 | 0.00 | 0.00 | 0.00 | 63 | 1005.8 |
| 20260505224903 | 16 | 109 | 4.8 | 16.1 | 0.00 | 0.00 | 0.00 | 62 | 1005.8 |
| 20260505224405 | 16 | 139 | 4.8 | 19.3 | 0.00 | 0.00 | 0.00 | 62 | 1005.9 |
| 20260505223903 | 16 | 146 | 6.4 | 19.3 | 0.00 | 0.00 | 0.00 | 62 | 1005.9 |
| 20260505223643 | 16 | 148 | 8.0 | 16.1 | 0.00 | 0.00 | 0.00 | 62 | 1005.7 |
| 20260505222904 | 16 | 122 | 8.0 | 11.3 | 0.00 | 0.00 | 0.00 | 62 | 1005.8 |